DW8102 Weather Reports


Display with metric or nautical units.
time (UTC)temp
F
wind
direction
speed
MPH
gust
MPH
rain 1hr
in
rain 24hr
in
rain mn
in
humidity
%
barometer
mb
20260504043016 0 0.0 0.0 0.00 0.11 0.05 1005.0
20260504041511 0 0.0 0.0 0.00 0.11 0.05 1005.0
20260504040006 0 0.0 0.0 0.00 0.11 0.05 1005.2
20260504034502 0 0.0 0.0 0.00 0.11 0.05 1005.4
20260504033116 0 0.0 0.0 0.00 0.11 0.05 1005.4
20260504031558 41 132 0.0 0.0 0.00 0.13 0.05 96 1005.7
20260504030104 42 133 0.0 0.0 0.00 0.13 0.05 96 1005.8
20260504023049 42 133 0.0 0.0 0.00 0.13 0.05 97 1006.2
20260504021549 42 132 0.0 0.0 0.00 0.16 0.05 97 1006.4
20260504020052 42 207 0.0 1.0 0.00 0.16 0.05 97 1006.4
20260504013052 42 205 0.0 0.0 0.00 0.16 0.05 97 1006.4
20260504011544 42 154 0.0 1.0 0.00 0.20 0.05 97 1006.4
20260504010052 42 181 0.0 0.0 0.00 0.20 0.05 97 1006.7
20260504003137 43 123 0.0 1.0 0.00 0.20 0.05 97 1007.1
20260504001540 43 127 0.0 1.0 0.00 0.26 0.05 97 1007.3
20260504000034 43 128 0.0 0.0 0.00 0.26 0.05 97 1007.4
20260503233031 43 194 0.0 0.0 0.00 0.26 0.05 97 1007.7
20260503231530 43 195 0.0 0.0 0.00 0.26 0.05 98 1008.0
20260503230029 43 70 0.0 0.0 0.00 0.26 0.05 98 1008.0
20260503223026 43 70 0.0 0.0 0.00 0.26 0.05 97 1008.4
20260503221526 43 70 0.0 0.0 0.00 0.26 0.05 97 1008.5
20260503220031 43 70 0.0 0.0 0.00 0.26 0.05 97 1008.5
20260503213030 43 70 0.0 0.0 0.00 0.26 0.05 97 1008.8
20260503211520 43 71 0.0 0.0 0.00 0.26 0.05 97 1008.8
20260503210020 43 70 0.0 0.0 0.00 0.26 0.05 97 1009.0
20260503203017 43 71 0.0 0.0 0.00 0.26 0.05 97 1009.2
20260503201516 43 70 0.0 0.0 0.00 0.26 0.05 97 1009.4
20260503200015 43 70 0.0 0.0 0.00 0.26 0.05 97 1009.3
20260503193015 43 71 0.0 0.0 0.00 0.26 0.05 97 1009.4
20260503191514 43 70 0.0 0.0 0.00 0.26 0.05 97 1009.4
20260503190017 43 71 0.0 0.0 0.00 0.26 0.05 97 1009.6
20260503183010 43 70 0.0 0.0 0.00 0.26 0.05 97 1009.5
20260503181528 43 71 0.0 0.0 0.00 0.26 0.05 97 1009.5
20260503180021 43 70 0.0 0.0 0.00 0.26 0.05 97 1009.5
20260503173009 43 71 0.0 0.0 0.00 0.26 0.05 97 1009.4
20260503171520 43 67 0.0 0.0 0.00 0.26 0.05 97 1009.4
20260503081530 42 336 0.0 8.0 0.01 0.16 0.16 95 1011.1
20260503071526 42 54 0.0 2.0 0.00 0.15 0.15 96 1010.5
20260503053019 0 0.0 0.0 0.00 0.15 0.15 1010.1
20260503051518 0 0.0 0.0 0.00 0.15 0.15 1010.0
20260503050019 0 0.0 0.0 0.00 0.15 0.15 1009.8